iso_date,epoch_date,Year,Hour,Min,DOY,POS_DOY,Lat,Lon,BP,Ts,Ta,has_bp,has_ts,has_ta,BuoyID,Buoy_Type,Buoy_Owner,Logistics,Hemisphere
2018-06-28T00:00:00Z,1530144000,2018,0,0,179.0,179.0,59.8674,-14.5472,-999.00,10.75,-999.0,no,yes,no,300234065514390,SVPVHI,AOML,UNKNOWN,North
2018-06-28T03:00:00Z,1530154800,2018,3,0,179.125,179.125,59.856,-14.557,-999.00,10.77,-999.0,no,yes,no,300234065514390,SVPVHI,AOML,UNKNOWN,North
2018-06-28T06:00:00Z,1530165600,2018,6,0,179.25,179.25,59.8444,-14.559,-999.00,10.78,-999.0,no,yes,no,300234065514390,SVPVHI,AOML,UNKNOWN,North
2018-06-28T09:00:00Z,1530176400,2018,9,0,179.375,179.375,59.837,-14.5644,-999.00,10.81,-999.0,no,yes,no,300234065514390,SVPVHI,AOML,UNKNOWN,North
2018-06-28T12:00:00Z,1530187200,2018,12,0,179.5,179.5,59.8358,-14.56,-999.00,10.99,-999.0,no,yes,no,300234065514390,SVPVHI,AOML,UNKNOWN,North
2018-06-28T15:00:00Z,1530198000,2018,15,0,179.625,179.625,59.83,-14.5462,-999.00,11.27,-999.0,no,yes,no,300234065514390,SVPVHI,AOML,UNKNOWN,North
2018-06-28T18:00:00Z,1530208800,2018,18,0,179.75,179.75,59.8242,-14.5356,-999.00,11.2,-999.0,no,yes,no,300234065514390,SVPVHI,AOML,UNKNOWN,North
2018-06-28T21:00:00Z,1530219600,2018,21,0,179.875,179.875,59.8232,-14.506,-999.00,11.08,-999.0,no,yes,no,300234065514390,SVPVHI,AOML,UNKNOWN,North
2018-06-29T00:00:00Z,1530230400,2018,0,0,180.0,180.0,59.8246,-14.486,-999.00,11.03,-999.0,no,yes,no,300234065514390,SVPVHI,AOML,UNKNOWN,North
2018-06-29T03:00:00Z,1530241200,2018,3,0,180.125,180.125,59.833,-14.4578,-999.00,11.0,-999.0,no,yes,no,300234065514390,SVPVHI,AOML,UNKNOWN,North
2018-06-29T06:00:00Z,1530252000,2018,6,0,180.25,180.25,59.8418,-14.411,-999.00,10.93,-999.0,no,yes,no,300234065514390,SVPVHI,AOML,UNKNOWN,North
2018-06-29T09:00:00Z,1530262800,2018,9,0,180.375,180.375,59.852,-14.3776,-999.00,10.98,-999.0,no,yes,no,300234065514390,SVPVHI,AOML,UNKNOWN,North
2018-06-29T12:00:00Z,1530273600,2018,12,0,180.5,180.5,59.8724,-14.359,-999.00,11.07,-999.0,no,yes,no,300234065514390,SVPVHI,AOML,UNKNOWN,North
2018-06-29T15:00:00Z,1530284400,2018,15,0,180.625,180.625,59.8952,-14.3534,-999.00,11.23,-999.0,no,yes,no,300234065514390,SVPVHI,AOML,UNKNOWN,North
2018-06-29T18:00:00Z,1530295200,2018,18,0,180.75,180.75,59.9174,-14.3694,-999.00,11.3,-999.0,no,yes,no,300234065514390,SVPVHI,AOML,UNKNOWN,North
2018-06-29T21:00:00Z,1530306000,2018,21,0,180.875,180.875,59.9376,-14.3956,-999.00,11.24,-999.0,no,yes,no,300234065514390,SVPVHI,AOML,UNKNOWN,North
2018-06-30T00:00:00Z,1530316800,2018,0,0,181.0,181.0,59.942,-14.4358,-999.00,11.15,-999.0,no,yes,no,300234065514390,SVPVHI,AOML,UNKNOWN,North
2018-06-30T03:00:00Z,1530327600,2018,3,0,181.125,181.125,59.9384,-14.4968,-999.00,11.18,-999.0,no,yes,no,300234065514390,SVPVHI,AOML,UNKNOWN,North
2018-06-30T06:00:00Z,1530338400,2018,6,0,181.25,181.25,59.9362,-14.5444,-999.00,11.13,-999.0,no,yes,no,300234065514390,SVPVHI,AOML,UNKNOWN,North
2018-06-30T09:00:00Z,1530349200,2018,9,0,181.375,181.375,59.9288,-14.5714,-999.00,11.11,-999.0,no,yes,no,300234065514390,SVPVHI,AOML,UNKNOWN,North
2018-06-30T12:00:00Z,1530360000,2018,12,0,181.5,181.5,59.9146,-14.5938,-999.00,11.12,-999.0,no,yes,no,300234065514390,SVPVHI,AOML,UNKNOWN,North
2018-06-30T15:00:00Z,1530370800,2018,15,0,181.625,181.625,59.8984,-14.613,-999.00,11.19,-999.0,no,yes,no,300234065514390,SVPVHI,AOML,UNKNOWN,North
2018-06-30T18:00:00Z,1530381600,2018,18,0,181.75,181.75,59.8734,-14.6112,-999.00,11.24,-999.0,no,yes,no,300234065514390,SVPVHI,AOML,UNKNOWN,North
2018-06-30T21:00:00Z,1530392400,2018,21,0,181.875,181.875,59.848,-14.5794,-999.00,11.15,-999.0,no,yes,no,300234065514390,SVPVHI,AOML,UNKNOWN,North
2018-07-01T00:00:00Z,1530403200,2018,0,0,182.0,182.0,59.8336,-14.5674,-999.00,11.06,-999.0,no,yes,no,300234065514390,SVPVHI,AOML,UNKNOWN,North
2018-07-01T03:00:00Z,1530414000,2018,3,0,182.125,182.125,59.837,-14.5478,-999.00,11.03,-999.0,no,yes,no,300234065514390,SVPVHI,AOML,UNKNOWN,North
2018-07-01T06:00:00Z,1530424800,2018,6,0,182.25,182.25,59.836,-14.4838,-999.00,10.98,-999.0,no,yes,no,300234065514390,SVPVHI,AOML,UNKNOWN,North
2018-07-01T09:00:00Z,1530435600,2018,9,0,182.375,182.375,59.831,-14.4304,-999.00,10.82,-999.0,no,yes,no,300234065514390,SVPVHI,AOML,UNKNOWN,North
2018-07-01T12:00:00Z,1530446400,2018,12,0,182.5,182.5,59.8424,-14.3978,-999.00,10.83,-999.0,no,yes,no,300234065514390,SVPVHI,AOML,UNKNOWN,North
2018-07-01T15:00:00Z,1530457200,2018,15,0,182.625,182.625,59.8718,-14.367,-999.00,10.93,-999.0,no,yes,no,300234065514390,SVPVHI,AOML,UNKNOWN,North
2018-07-01T18:00:00Z,1530468000,2018,18,0,182.75,182.75,59.911,-14.2998,-999.00,10.9,-999.0,no,yes,no,300234065514390,SVPVHI,AOML,UNKNOWN,North
2018-07-01T21:00:00Z,1530478800,2018,21,0,182.875,182.875,59.9412,-14.2322,-999.00,10.8,-999.0,no,yes,no,300234065514390,SVPVHI,AOML,UNKNOWN,North
2018-07-02T00:00:00Z,1530489600,2018,0,0,183.0,183.0,59.9748,-14.1926,-999.00,10.8,-999.0,no,yes,no,300234065514390,SVPVHI,AOML,UNKNOWN,North
2018-07-02T03:00:00Z,1530500400,2018,3,0,183.125,183.125,60.0042,-14.1442,-999.00,10.69,-999.0,no,yes,no,300234065514390,SVPVHI,AOML,UNKNOWN,North
2018-07-02T06:00:00Z,1530511200,2018,6,0,183.25,183.25,60.0144,-14.1054,-999.00,10.7,-999.0,no,yes,no,300234065514390,SVPVHI,AOML,UNKNOWN,North
2018-07-02T09:00:00Z,1530522000,2018,9,0,183.375,183.375,60.03,-14.0708,-999.00,10.86,-999.0,no,yes,no,300234065514390,SVPVHI,AOML,UNKNOWN,North
2018-07-02T12:00:00Z,1530532800,2018,12,0,183.5,183.5,60.0442,-14.0358,-999.00,10.87,-999.0,no,yes,no,300234065514390,SVPVHI,AOML,UNKNOWN,North
2018-07-02T15:00:00Z,1530543600,2018,15,0,183.625,183.625,60.055,-14.0122,-999.00,10.88,-999.0,no,yes,no,300234065514390,SVPVHI,AOML,UNKNOWN,North
2018-07-02T18:00:00Z,1530554400,2018,18,0,183.75,183.75,60.07,-13.9904,-999.00,10.96,-999.0,no,yes,no,300234065514390,SVPVHI,AOML,UNKNOWN,North
2018-07-02T21:00:00Z,1530565200,2018,21,0,183.875,183.875,60.08,-13.961,-999.00,10.97,-999.0,no,yes,no,300234065514390,SVPVHI,AOML,UNKNOWN,North
2018-07-03T00:00:00Z,1530576000,2018,0,0,184.0,184.0,60.0962,-13.9366,-999.00,10.95,-999.0,no,yes,no,300234065514390,SVPVHI,AOML,UNKNOWN,North
2018-07-03T03:00:00Z,1530586800,2018,3,0,184.125,184.125,60.105,-13.9254,-999.00,10.92,-999.0,no,yes,no,300234065514390,SVPVHI,AOML,UNKNOWN,North
2018-07-03T06:00:00Z,1530597600,2018,6,0,184.25,184.25,60.11,-13.927,-999.00,10.9,-999.0,no,yes,no,300234065514390,SVPVHI,AOML,UNKNOWN,North
2018-07-03T09:00:00Z,1530608400,2018,9,0,184.375,184.375,60.1204,-13.9514,-999.00,10.98,-999.0,no,yes,no,300234065514390,SVPVHI,AOML,UNKNOWN,North
2018-07-03T12:00:00Z,1530619200,2018,12,0,184.5,184.5,60.1418,-13.966,-999.00,10.99,-999.0,no,yes,no,300234065514390,SVPVHI,AOML,UNKNOWN,North
2018-07-03T15:00:00Z,1530630000,2018,15,0,184.625,184.625,60.1626,-13.9712,-999.00,10.99,-999.0,no,yes,no,300234065514390,SVPVHI,AOML,UNKNOWN,North
2018-07-03T18:00:00Z,1530640800,2018,18,0,184.75,184.75,60.1886,-13.977,-999.00,11.01,-999.0,no,yes,no,300234065514390,SVPVHI,AOML,UNKNOWN,North
2018-07-03T21:00:00Z,1530651600,2018,21,0,184.875,184.875,60.2162,-13.9746,-999.00,11.21,-999.0,no,yes,no,300234065514390,SVPVHI,AOML,UNKNOWN,North
2018-07-04T00:00:00Z,1530662400,2018,0,0,185.0,185.0,60.2448,-13.9644,-999.00,11.36,-999.0,no,yes,no,300234065514390,SVPVHI,AOML,UNKNOWN,North
2018-07-04T03:00:00Z,1530673200,2018,3,0,185.125,185.125,60.2746,-13.9574,-999.00,11.35,-999.0,no,yes,no,300234065514390,SVPVHI,AOML,UNKNOWN,North
2018-07-04T06:00:00Z,1530684000,2018,6,0,185.25,185.25,60.2968,-13.957,-999.00,11.36,-999.0,no,yes,no,300234065514390,SVPVHI,AOML,UNKNOWN,North
2018-07-04T09:00:00Z,1530694800,2018,9,0,185.375,185.375,60.3218,-13.9536,-999.00,11.36,-999.0,no,yes,no,300234065514390,SVPVHI,AOML,UNKNOWN,North
2018-07-04T12:00:00Z,1530705600,2018,12,0,185.5,185.5,60.3434,-13.9346,-999.00,11.4,-999.0,no,yes,no,300234065514390,SVPVHI,AOML,UNKNOWN,North
2018-07-04T15:00:00Z,1530716400,2018,15,0,185.625,185.625,60.3376,-13.8742,-999.00,11.48,-999.0,no,yes,no,300234065514390,SVPVHI,AOML,UNKNOWN,North
2018-07-04T18:00:00Z,1530727200,2018,18,0,185.75,185.75,60.3204,-13.8516,-999.00,11.46,-999.0,no,yes,no,300234065514390,SVPVHI,AOML,UNKNOWN,North
2018-07-04T21:00:00Z,1530738000,2018,21,0,185.875,185.875,60.3148,-13.8388,-999.00,11.37,-999.0,no,yes,no,300234065514390,SVPVHI,AOML,UNKNOWN,North
2018-07-05T00:00:00Z,1530748800,2018,0,0,186.0,186.0,60.3214,-13.7788,-999.00,11.22,-999.0,no,yes,no,300234065514390,SVPVHI,AOML,UNKNOWN,North
2018-07-05T03:00:00Z,1530759600,2018,3,0,186.125,186.125,60.3176,-13.7054,-999.00,10.94,-999.0,no,yes,no,300234065514390,SVPVHI,AOML,UNKNOWN,North
2018-07-05T06:00:00Z,1530770400,2018,6,0,186.25,186.25,60.3012,-13.6444,-999.00,10.74,-999.0,no,yes,no,300234065514390,SVPVHI,AOML,UNKNOWN,North
2018-07-05T09:00:00Z,1530781200,2018,9,0,186.375,186.375,60.289,-13.5976,-999.00,10.65,-999.0,no,yes,no,300234065514390,SVPVHI,AOML,UNKNOWN,North
2018-07-05T12:00:00Z,1530792000,2018,12,0,186.5,186.5,60.281,-13.5592,-999.00,10.63,-999.0,no,yes,no,300234065514390,SVPVHI,AOML,UNKNOWN,North
2018-07-05T15:00:00Z,1530802800,2018,15,0,186.625,186.625,60.28,-13.5136,-999.00,10.65,-999.0,no,yes,no,300234065514390,SVPVHI,AOML,UNKNOWN,North
2018-07-05T18:00:00Z,1530813600,2018,18,0,186.75,186.75,60.2758,-13.4778,-999.00,10.67,-999.0,no,yes,no,300234065514390,SVPVHI,AOML,UNKNOWN,North
2018-07-05T21:00:00Z,1530824400,2018,21,0,186.875,186.875,60.2822,-13.4346,-999.00,10.73,-999.0,no,yes,no,300234065514390,SVPVHI,AOML,UNKNOWN,North
2018-07-06T00:00:00Z,1530835200,2018,0,0,187.0,187.0,60.2708,-13.3894,-999.00,10.7,-999.0,no,yes,no,300234065514390,SVPVHI,AOML,UNKNOWN,North
2018-07-06T03:00:00Z,1530846000,2018,3,0,187.125,187.125,60.2694,-13.3718,-999.00,10.67,-999.0,no,yes,no,300234065514390,SVPVHI,AOML,UNKNOWN,North
2018-07-06T06:00:00Z,1530856800,2018,6,0,187.25,187.25,60.2846,-13.3466,-999.00,10.64,-999.0,no,yes,no,300234065514390,SVPVHI,AOML,UNKNOWN,North
2018-07-06T09:00:00Z,1530867600,2018,9,0,187.375,187.375,60.2958,-13.3108,-999.00,10.62,-999.0,no,yes,no,300234065514390,SVPVHI,AOML,UNKNOWN,North
2018-07-06T12:00:00Z,1530878400,2018,12,0,187.5,187.5,60.2944,-13.2682,-999.00,10.69,-999.0,no,yes,no,300234065514390,SVPVHI,AOML,UNKNOWN,North
2018-07-06T15:00:00Z,1530889200,2018,15,0,187.625,187.625,60.298,-13.2574,-999.00,10.79,-999.0,no,yes,no,300234065514390,SVPVHI,AOML,UNKNOWN,North
2018-07-06T18:00:00Z,1530900000,2018,18,0,187.75,187.75,60.3086,-13.2482,-999.00,10.82,-999.0,no,yes,no,300234065514390,SVPVHI,AOML,UNKNOWN,North
2018-07-06T21:00:00Z,1530910800,2018,21,0,187.875,187.875,60.3266,-13.239,-999.00,10.82,-999.0,no,yes,no,300234065514390,SVPVHI,AOML,UNKNOWN,North
2018-07-07T00:00:00Z,1530921600,2018,0,0,188.0,188.0,60.3448,-13.2106,-999.00,10.84,-999.0,no,yes,no,300234065514390,SVPVHI,AOML,UNKNOWN,North
2018-07-07T03:00:00Z,1530932400,2018,3,0,188.125,188.125,60.3572,-13.1826,-999.00,10.83,-999.0,no,yes,no,300234065514390,SVPVHI,AOML,UNKNOWN,North
2018-07-07T06:00:00Z,1530943200,2018,6,0,188.25,188.25,60.3658,-13.1684,-999.00,10.8,-999.0,no,yes,no,300234065514390,SVPVHI,AOML,UNKNOWN,North
2018-07-07T09:00:00Z,1530954000,2018,9,0,188.375,188.375,60.3882,-13.17,-999.00,10.8,-999.0,no,yes,no,300234065514390,SVPVHI,AOML,UNKNOWN,North
2018-07-07T12:00:00Z,1530964800,2018,12,0,188.5,188.5,60.4188,-13.149,-999.00,10.82,-999.0,no,yes,no,300234065514390,SVPVHI,AOML,UNKNOWN,North
2018-07-07T15:00:00Z,1530975600,2018,15,0,188.625,188.625,60.4404,-13.073,-999.00,10.82,-999.0,no,yes,no,300234065514390,SVPVHI,AOML,UNKNOWN,North
2018-07-07T18:00:00Z,1530986400,2018,18,0,188.75,188.75,60.4214,-13.023,-999.00,10.81,-999.0,no,yes,no,300234065514390,SVPVHI,AOML,UNKNOWN,North
2018-07-07T21:00:00Z,1530997200,2018,21,0,188.875,188.875,60.4144,-13.0266,-999.00,10.81,-999.0,no,yes,no,300234065514390,SVPVHI,AOML,UNKNOWN,North
2018-07-08T00:00:00Z,1531008000,2018,0,0,189.0,189.0,60.4272,-13.0136,-999.00,10.78,-999.0,no,yes,no,300234065514390,SVPVHI,AOML,UNKNOWN,North
2018-07-08T03:00:00Z,1531018800,2018,3,0,189.125,189.125,60.4412,-12.9614,-999.00,10.78,-999.0,no,yes,no,300234065514390,SVPVHI,AOML,UNKNOWN,North
2018-07-08T06:00:00Z,1531029600,2018,6,0,189.25,189.25,60.435,-12.896,-999.00,10.77,-999.0,no,yes,no,300234065514390,SVPVHI,AOML,UNKNOWN,North
2018-07-08T09:00:00Z,1531040400,2018,9,0,189.375,189.375,60.4114,-12.8926,-999.00,10.76,-999.0,no,yes,no,300234065514390,SVPVHI,AOML,UNKNOWN,North
2018-07-08T12:00:00Z,1531051200,2018,12,0,189.5,189.5,60.4086,-12.9174,-999.00,10.82,-999.0,no,yes,no,300234065514390,SVPVHI,AOML,UNKNOWN,North
2018-07-08T15:00:00Z,1531062000,2018,15,0,189.625,189.625,60.427,-12.9,-999.00,10.9,-999.0,no,yes,no,300234065514390,SVPVHI,AOML,UNKNOWN,North
2018-07-08T18:00:00Z,1531072800,2018,18,0,189.75,189.75,60.4388,-12.8584,-999.00,10.91,-999.0,no,yes,no,300234065514390,SVPVHI,AOML,UNKNOWN,North
2018-07-08T21:00:00Z,1531083600,2018,21,0,189.875,189.875,60.4374,-12.8384,-999.00,10.87,-999.0,no,yes,no,300234065514390,SVPVHI,AOML,UNKNOWN,North
2018-07-09T00:00:00Z,1531094400,2018,0,0,190.0,190.0,60.4446,-12.841,-999.00,10.86,-999.0,no,yes,no,300234065514390,SVPVHI,AOML,UNKNOWN,North
2018-07-09T03:00:00Z,1531105200,2018,3,0,190.125,190.125,60.4718,-12.8378,-999.00,10.82,-999.0,no,yes,no,300234065514390,SVPVHI,AOML,UNKNOWN,North
2018-07-09T06:00:00Z,1531116000,2018,6,0,190.25,190.25,60.497,-12.7808,-999.00,10.82,-999.0,no,yes,no,300234065514390,SVPVHI,AOML,UNKNOWN,North
2018-07-09T09:00:00Z,1531126800,2018,9,0,190.375,190.375,60.4958,-12.7426,-999.00,10.82,-999.0,no,yes,no,300234065514390,SVPVHI,AOML,UNKNOWN,North
2018-07-09T12:00:00Z,1531137600,2018,12,0,190.5,190.5,60.4818,-12.7322,-999.00,10.88,-999.0,no,yes,no,300234065514390,SVPVHI,AOML,UNKNOWN,North
2018-07-09T15:00:00Z,1531148400,2018,15,0,190.625,190.625,60.4838,-12.7534,-999.00,10.97,-999.0,no,yes,no,300234065514390,SVPVHI,AOML,UNKNOWN,North
2018-07-09T18:00:00Z,1531159200,2018,18,0,190.75,190.75,60.5044,-12.7426,-999.00,11.04,-999.0,no,yes,no,300234065514390,SVPVHI,AOML,UNKNOWN,North
2018-07-09T21:00:00Z,1531170000,2018,21,0,190.875,190.875,60.5156,-12.6914,-999.00,11.04,-999.0,no,yes,no,300234065514390,SVPVHI,AOML,UNKNOWN,North
2018-07-10T00:00:00Z,1531180800,2018,0,0,191.0,191.0,60.4982,-12.656,-999.00,11.05,-999.0,no,yes,no,300234065514390,SVPVHI,AOML,UNKNOWN,North
2018-07-10T03:00:00Z,1531191600,2018,3,0,191.125,191.125,60.49,-12.669,-999.00,11.03,-999.0,no,yes,no,300234065514390,SVPVHI,AOML,UNKNOWN,North
2018-07-10T06:00:00Z,1531202400,2018,6,0,191.25,191.25,60.5104,-12.6688,-999.00,11.02,-999.0,no,yes,no,300234065514390,SVPVHI,AOML,UNKNOWN,North
2018-07-10T09:00:00Z,1531213200,2018,9,0,191.375,191.375,60.5254,-12.6314,-999.00,11.05,-999.0,no,yes,no,300234065514390,SVPVHI,AOML,UNKNOWN,North
2018-07-10T12:00:00Z,1531224000,2018,12,0,191.5,191.5,60.5162,-12.597,-999.00,11.13,-999.0,no,yes,no,300234065514390,SVPVHI,AOML,UNKNOWN,North
2018-07-10T15:00:00Z,1531234800,2018,15,0,191.625,191.625,60.508,-12.601,-999.00,11.19,-999.0,no,yes,no,300234065514390,SVPVHI,AOML,UNKNOWN,North
2018-07-10T18:00:00Z,1531245600,2018,18,0,191.75,191.75,60.5238,-12.5984,-999.00,11.19,-999.0,no,yes,no,300234065514390,SVPVHI,AOML,UNKNOWN,North
2018-07-10T21:00:00Z,1531256400,2018,21,0,191.875,191.875,60.551,-12.5618,-999.00,11.19,-999.0,no,yes,no,300234065514390,SVPVHI,AOML,UNKNOWN,North
2018-07-11T00:00:00Z,1531267200,2018,0,0,192.0,192.0,60.555,-12.5108,-999.00,11.22,-999.0,no,yes,no,300234065514390,SVPVHI,AOML,UNKNOWN,North
2018-07-11T03:00:00Z,1531278000,2018,3,0,192.125,192.125,60.5516,-12.4758,-999.00,11.14,-999.0,no,yes,no,300234065514390,SVPVHI,AOML,UNKNOWN,North
2018-07-11T06:00:00Z,1531288800,2018,6,0,192.25,192.25,60.5452,-12.4476,-999.00,11.11,-999.0,no,yes,no,300234065514390,SVPVHI,AOML,UNKNOWN,North
2018-07-11T09:00:00Z,1531299600,2018,9,0,192.375,192.375,60.5404,-12.4192,-999.00,11.18,-999.0,no,yes,no,300234065514390,SVPVHI,AOML,UNKNOWN,North
2018-07-11T12:00:00Z,1531310400,2018,12,0,192.5,192.5,60.5278,-12.4052,-999.00,11.41,-999.0,no,yes,no,300234065514390,SVPVHI,AOML,UNKNOWN,North
2018-07-11T15:00:00Z,1531321200,2018,15,0,192.625,192.625,60.5162,-12.4008,-999.00,11.5,-999.0,no,yes,no,300234065514390,SVPVHI,AOML,UNKNOWN,North
2018-07-11T18:00:00Z,1531332000,2018,18,0,192.75,192.75,60.5222,-12.3958,-999.00,11.44,-999.0,no,yes,no,300234065514390,SVPVHI,AOML,UNKNOWN,North
2018-07-11T21:00:00Z,1531342800,2018,21,0,192.875,192.875,60.5398,-12.3672,-999.00,11.46,-999.0,no,yes,no,300234065514390,SVPVHI,AOML,UNKNOWN,North
2018-07-12T00:00:00Z,1531353600,2018,0,0,193.0,193.0,60.5414,-12.3418,-999.00,11.42,-999.0,no,yes,no,300234065514390,SVPVHI,AOML,UNKNOWN,North
2018-07-12T03:00:00Z,1531364400,2018,3,0,193.125,193.125,60.5448,-12.3578,-999.00,11.36,-999.0,no,yes,no,300234065514390,SVPVHI,AOML,UNKNOWN,North
2018-07-12T06:00:00Z,1531375200,2018,6,0,193.25,193.25,60.5724,-12.3434,-999.00,11.36,-999.0,no,yes,no,300234065514390,SVPVHI,AOML,UNKNOWN,North
2018-07-12T09:00:00Z,1531386000,2018,9,0,193.375,193.375,60.5886,-12.2856,-999.00,11.3,-999.0,no,yes,no,300234065514390,SVPVHI,AOML,UNKNOWN,North
2018-07-12T12:00:00Z,1531396800,2018,12,0,193.5,193.5,60.5702,-12.2602,-999.00,11.44,-999.0,no,yes,no,300234065514390,SVPVHI,AOML,UNKNOWN,North
2018-07-12T15:00:00Z,1531407600,2018,15,0,193.625,193.625,60.5626,-12.303,-999.00,11.45,-999.0,no,yes,no,300234065514390,SVPVHI,AOML,UNKNOWN,North
2018-07-12T18:00:00Z,1531418400,2018,18,0,193.75,193.75,60.5992,-12.3222,-999.00,11.36,-999.0,no,yes,no,300234065514390,SVPVHI,AOML,UNKNOWN,North
2018-07-12T21:00:00Z,1531429200,2018,21,0,193.875,193.875,60.6276,-12.2408,-999.00,11.42,-999.0,no,yes,no,300234065514390,SVPVHI,AOML,UNKNOWN,North
2018-07-13T00:00:00Z,1531440000,2018,0,0,194.0,194.0,60.6058,-12.2042,-999.00,11.47,-999.0,no,yes,no,300234065514390,SVPVHI,AOML,UNKNOWN,North
2018-07-13T03:00:00Z,1531450800,2018,3,0,194.125,194.125,60.5982,-12.228,-999.00,11.51,-999.0,no,yes,no,300234065514390,SVPVHI,AOML,UNKNOWN,North
2018-07-13T06:00:00Z,1531461600,2018,6,0,194.25,194.25,60.6284,-12.2256,-999.00,11.45,-999.0,no,yes,no,300234065514390,SVPVHI,AOML,UNKNOWN,North
2018-07-13T09:00:00Z,1531472400,2018,9,0,194.375,194.375,60.6664,-12.151,-999.00,11.42,-999.0,no,yes,no,300234065514390,SVPVHI,AOML,UNKNOWN,North
2018-07-13T12:00:00Z,1531483200,2018,12,0,194.5,194.5,60.6598,-12.0998,-999.00,11.51,-999.0,no,yes,no,300234065514390,SVPVHI,AOML,UNKNOWN,North
2018-07-13T15:00:00Z,1531494000,2018,15,0,194.625,194.625,60.6578,-12.1078,-999.00,11.38,-999.0,no,yes,no,300234065514390,SVPVHI,AOML,UNKNOWN,North
2018-07-13T18:00:00Z,1531504800,2018,18,0,194.75,194.75,60.6766,-12.112,-999.00,11.38,-999.0,no,yes,no,300234065514390,SVPVHI,AOML,UNKNOWN,North
2018-07-13T21:00:00Z,1531515600,2018,21,0,194.875,194.875,60.7206,-12.079,-999.00,11.39,-999.0,no,yes,no,300234065514390,SVPVHI,AOML,UNKNOWN,North
2018-07-14T00:00:00Z,1531526400,2018,0,0,195.0,195.0,60.7478,-11.9782,-999.00,11.29,-999.0,no,yes,no,300234065514390,SVPVHI,AOML,UNKNOWN,North
2018-07-14T03:00:00Z,1531537200,2018,3,0,195.125,195.125,60.7164,-11.9082,-999.00,11.28,-999.0,no,yes,no,300234065514390,SVPVHI,AOML,UNKNOWN,North
2018-07-14T06:00:00Z,1531548000,2018,6,0,195.25,195.25,60.6964,-11.933,-999.00,11.26,-999.0,no,yes,no,300234065514390,SVPVHI,AOML,UNKNOWN,North
2018-07-14T09:00:00Z,1531558800,2018,9,0,195.375,195.375,60.73,-11.9252,-999.00,11.22,-999.0,no,yes,no,300234065514390,SVPVHI,AOML,UNKNOWN,North
2018-07-14T12:00:00Z,1531569600,2018,12,0,195.5,195.5,60.7596,-11.852,-999.00,11.26,-999.0,no,yes,no,300234065514390,SVPVHI,AOML,UNKNOWN,North
2018-07-14T15:00:00Z,1531580400,2018,15,0,195.625,195.625,60.7488,-11.785,-999.00,11.38,-999.0,no,yes,no,300234065514390,SVPVHI,AOML,UNKNOWN,North
2018-07-14T18:00:00Z,1531591200,2018,18,0,195.75,195.75,60.7292,-11.781,-999.00,11.38,-999.0,no,yes,no,300234065514390,SVPVHI,AOML,UNKNOWN,North
2018-07-14T21:00:00Z,1531602000,2018,21,0,195.875,195.875,60.739,-11.8058,-999.00,11.31,-999.0,no,yes,no,300234065514390,SVPVHI,AOML,UNKNOWN,North
2018-07-15T00:00:00Z,1531612800,2018,0,0,196.0,196.0,60.7868,-11.7988,-999.00,11.26,-999.0,no,yes,no,300234065514390,SVPVHI,AOML,UNKNOWN,North
2018-07-15T03:00:00Z,1531623600,2018,3,0,196.125,196.125,60.8142,-11.7346,-999.00,11.26,-999.0,no,yes,no,300234065514390,SVPVHI,AOML,UNKNOWN,North
2018-07-15T06:00:00Z,1531634400,2018,6,0,196.25,196.25,60.7988,-11.6444,-999.00,11.3,-999.0,no,yes,no,300234065514390,SVPVHI,AOML,UNKNOWN,North
2018-07-15T09:00:00Z,1531645200,2018,9,0,196.375,196.375,60.7824,-11.6308,-999.00,11.38,-999.0,no,yes,no,300234065514390,SVPVHI,AOML,UNKNOWN,North
2018-07-15T12:00:00Z,1531656000,2018,12,0,196.5,196.5,60.8104,-11.6506,-999.00,11.45,-999.0,no,yes,no,300234065514390,SVPVHI,AOML,UNKNOWN,North
2018-07-15T12:44:38Z,1531658678,2018,12,44,196.531,196.531,60.821,-11.6468,-999.00,11.44,-999.0,no,yes,no,300234065514390,SVPVHI,AOML,UNKNOWN,North
2018-07-15T15:00:00Z,1531666800,2018,15,0,196.625,196.625,60.846,-11.6042,-999.00,11.45,-999.0,no,yes,no,300234065514390,SVPVHI,AOML,UNKNOWN,North
2018-07-15T18:00:00Z,1531677600,2018,18,0,196.75,196.75,60.8432,-11.526,-999.00,11.51,-999.0,no,yes,no,300234065514390,SVPVHI,AOML,UNKNOWN,North
2018-07-15T21:00:00Z,1531688400,2018,21,0,196.875,196.875,60.8302,-11.508,-999.00,11.52,-999.0,no,yes,no,300234065514390,SVPVHI,AOML,UNKNOWN,North
2018-07-16T00:00:00Z,1531699200,2018,0,0,197.0,197.0,60.8478,-11.535,-999.00,11.47,-999.0,no,yes,no,300234065514390,SVPVHI,AOML,UNKNOWN,North
2018-07-16T03:00:00Z,1531710000,2018,3,0,197.125,197.125,60.8814,-11.5332,-999.00,11.48,-999.0,no,yes,no,300234065514390,SVPVHI,AOML,UNKNOWN,North
2018-07-16T06:00:00Z,1531720800,2018,6,0,197.25,197.25,60.8962,-11.4808,-999.00,11.45,-999.0,no,yes,no,300234065514390,SVPVHI,AOML,UNKNOWN,North
2018-07-16T09:00:00Z,1531731600,2018,9,0,197.375,197.375,60.8984,-11.4256,-999.00,11.38,-999.0,no,yes,no,300234065514390,SVPVHI,AOML,UNKNOWN,North
2018-07-16T12:00:00Z,1531742400,2018,12,0,197.5,197.5,60.9052,-11.4008,-999.00,11.44,-999.0,no,yes,no,300234065514390,SVPVHI,AOML,UNKNOWN,North
2018-07-16T15:00:00Z,1531753200,2018,15,0,197.625,197.625,60.927,-11.383,-999.00,11.43,-999.0,no,yes,no,300234065514390,SVPVHI,AOML,UNKNOWN,North
2018-07-16T18:00:00Z,1531764000,2018,18,0,197.75,197.75,60.9382,-11.3294,-999.00,11.4,-999.0,no,yes,no,300234065514390,SVPVHI,AOML,UNKNOWN,North
2018-07-16T21:00:00Z,1531774800,2018,21,0,197.875,197.875,60.9402,-11.2608,-999.00,11.39,-999.0,no,yes,no,300234065514390,SVPVHI,AOML,UNKNOWN,North
2018-07-17T00:00:00Z,1531785600,2018,0,0,198.0,198.0,60.9402,-11.1906,-999.00,11.35,-999.0,no,yes,no,300234065514390,SVPVHI,AOML,UNKNOWN,North
2018-07-17T03:00:00Z,1531796400,2018,3,0,198.125,198.125,60.9264,-11.167,-999.00,11.33,-999.0,no,yes,no,300234065514390,SVPVHI,AOML,UNKNOWN,North
2018-07-17T06:00:00Z,1531807200,2018,6,0,198.25,198.25,60.9202,-11.1738,-999.00,11.36,-999.0,no,yes,no,300234065514390,SVPVHI,AOML,UNKNOWN,North
2018-07-17T09:00:00Z,1531818000,2018,9,0,198.375,198.375,60.926,-11.1272,-999.00,11.37,-999.0,no,yes,no,300234065514390,SVPVHI,AOML,UNKNOWN,North
2018-07-17T12:00:00Z,1531828800,2018,12,0,198.5,198.5,60.924,-11.0454,-999.00,11.46,-999.0,no,yes,no,300234065514390,SVPVHI,AOML,UNKNOWN,North
2018-07-17T15:00:00Z,1531839600,2018,15,0,198.625,198.625,60.9046,-11.0038,-999.00,11.57,-999.0,no,yes,no,300234065514390,SVPVHI,AOML,UNKNOWN,North
2018-07-17T18:00:00Z,1531850400,2018,18,0,198.75,198.75,60.895,-11.0202,-999.00,11.59,-999.0,no,yes,no,300234065514390,SVPVHI,AOML,UNKNOWN,North
2018-07-17T21:00:00Z,1531861200,2018,21,0,198.875,198.875,60.923,-10.969,-999.00,11.6,-999.0,no,yes,no,300234065514390,SVPVHI,AOML,UNKNOWN,North
2018-07-18T00:00:00Z,1531872000,2018,0,0,199.0,199.0,60.9304,-10.843,-999.00,11.56,-999.0,no,yes,no,300234065514390,SVPVHI,AOML,UNKNOWN,North
2018-07-18T03:00:00Z,1531882800,2018,3,0,199.125,199.125,60.9066,-10.7752,-999.00,11.56,-999.0,no,yes,no,300234065514390,SVPVHI,AOML,UNKNOWN,North
2018-07-18T06:00:00Z,1531893600,2018,6,0,199.25,199.25,60.8946,-10.7688,-999.00,11.51,-999.0,no,yes,no,300234065514390,SVPVHI,AOML,UNKNOWN,North